World > North America > United States > Virginia   About Bristow, VA

Hourly Bristow, VA Regional Weather

Feedback E-mail the Weather

Quick WX

Bristow, VA Weather Maps

°F °C°F °C
Bristow Weather Map
UTC Time: 7/6/2022, 04:52
Your Time:

Bristow, VA Regional Weather

Expires:202207060500;;764231
ASUS41 KAKQ 060415
RWRAKQ

REGIONAL WEATHER ROUNDUP
NATIONAL WEATHER SERVICE WAKEFIELD VA
1200 AM EDT WED JUL 06 2022

Note: "fair" indicates few or no clouds below 12,000 feet with no
significant weather and/or obstructions to visibility. * = Denotes
station may not report precipitation (e.g., rain,snow,etc.),
thunder or fog.


VAZ042-051-052>054-056-060500-
NORTHERN VIRGINIA
  
CITY           SKY/WX    TMP DP  RH WIND       PRES   REMARKS
WASH NATIONAL  MOCLDY    81  71  71 SW6       29.86F                  
DULLES         MOCLDY    78  72  81 SW3       29.88S                  
FORT BELVOIR   PTCLDY    80  69  69 W7        29.85S                  
QUANTICO       PTCLDY    80  68  66 W9        29.87                   
FREDERICKSBRG* PTCLDY    78  68  71 S3        29.86F                  
STAFFORD*      NOT AVBL                                               
WARRENTON      CLOUDY    73  70  91 CALM      29.88F                  
CULPEPER*      PTCLDY    76  66  71 CALM      29.89F                  
MANASSAS*      PTCLDY    74  70  87 SE5       29.88S                  
LEESBURG*      MOCLDY    77  72  83 W5        29.89F                  
WINCHESTER     CLOUDY    73  68  83 SW7       29.91R                  
FRONT ROYAL*   FAIR      72  68  88 S3        29.90F                  
LURAY*         FAIR      72  66  83 S5        29.93S                  
$$


SKY/WX - Weather  TMP - Temperature  DP - Dew Point  RH - Humidity
WIND - Wind Direction/Speed PRES - Barometric Pressure VSB - Visibility
WCI - Wind Chill Index E13G22 Wind - East Wind 13 mph/Gusts of 22 mph

Trending Headlines

Bristow Radar Loop



Bristow Quick Facts


National Two Day Weather Forecast


E-mail the Bristow Weather Forecast

Voice your opinion or tell us about page issues...